User: anonymous   Login
Location: Unspecified
(0.0000°N, 0.0000°E)
Time: 05:25:59
(UTC+00:00)
Language:

GONETS M04 - Orbit

View from above orbital plane
View from above orbital plane
View from above satellite
View from above satellite

Ground track
Ground track

The orbit data is extracted from the following two-line orbital elements,

1 38736U 12041D   24170.95340252  .00000049  00000-0  28080-3 0  9993
2 38736  82.4779 165.7985 0024288 201.0485 158.9597 12.43866039532412
Epoch (UTC): 18 June 2024 22:52:53
Eccentricity: 0.0024288
inclination: 82.4779°
perigee height: 1471 km
apogee height: 1509 km
right ascension of ascending node: 165.7985°
argument of perigee: 201.0485°
revolutions per day: 12.43866039
mean anomaly at epoch: 158.9597°
orbit number at epoch: 53241

The dashed part of the orbit path shows where the satellite is in the earth's shadow,  

DLR